User: anonymous   Login
Location: Unspecified
(0.0000°N, 0.0000°E)
Time: 17:34:52
(UTC+02:00)
Language:

ARIANE 5 R/B - Orbit

View from above orbital plane
View from above orbital plane
View from above satellite
View from above satellite

Ground track
Ground track

The orbit data is extracted from the following two-line orbital elements,

1 27387U 02009B   17229.25222721 -.00000023  00000-0  70341-5 0  9998
2 27387  98.4680 177.6308 0031652 319.0901  40.7910 14.35933598810309
Epoch (UTC): 17 August 2017 06:03:12
Eccentricity: 0.0031652
inclination: 98.4680°
perigee height: 749 km
apogee height: 794 km
right ascension of ascending node: 177.6308°
argument of perigee: 319.0901°
revolutions per day: 14.35933598
mean anomaly at epoch: 40.7910°
orbit number at epoch: 81030

The dashed part of the orbit path shows where the satellite is in the earth's shadow,  

DLR